TimeCDT,TemperatureF,Dew PointF,Humidity,Sea Level PressureIn,VisibilityMPH,Wind Direction,Wind SpeedMPH,Gust SpeedMPH,PrecipitationIn,Events,Conditions,WindDirDegrees,DateUTC
12:53 AM,54.0,36.0,51,29.93,10.0,SSW,10.4,17.3,N/A,,Clear,200,2012-10-09 05:53:00
1:53 AM,52.0,36.0,54,29.94,10.0,SSW,6.9,-,N/A,,Clear,200,2012-10-09 06:53:00
2:53 AM,50.0,35.6,58,29.94,10.0,SSW,6.9,-,N/A,,Clear,210,2012-10-09 07:53:00
3:53 AM,48.9,36.0,61,29.91,10.0,South,5.8,-,N/A,,Clear,170,2012-10-09 08:53:00
4:53 AM,48.9,35.1,59,29.91,10.0,South,5.8,-,N/A,,Clear,180,2012-10-09 09:53:00
5:53 AM,48.0,36.0,63,29.90,10.0,South,4.6,-,N/A,,Clear,180,2012-10-09 10:53:00
6:53 AM,48.0,36.0,63,29.91,10.0,South,4.6,-,N/A,,Clear,190,2012-10-09 11:53:00
7:53 AM,48.9,37.0,64,29.90,10.0,South,4.6,-,N/A,,Clear,170,2012-10-09 12:53:00
8:53 AM,51.1,37.9,61,29.91,10.0,SW,5.8,-,N/A,,Clear,220,2012-10-09 13:53:00
9:53 AM,55.9,39.9,55,29.91,10.0,SW,9.2,-,N/A,,Clear,220,2012-10-09 14:53:00
10:53 AM,60.1,42.1,51,29.92,10.0,SSW,10.4,-,N/A,,Clear,210,2012-10-09 15:53:00
11:53 AM,63.0,44.1,50,29.91,10.0,SW,10.4,16.1,N/A,,Clear,230,2012-10-09 16:53:00
12:53 PM,66.9,45.0,45,29.90,10.0,SW,9.2,-,N/A,,Mostly Cloudy,230,2012-10-09 17:53:00
1:48 PM,62.6,42.8,48,29.90,10.0,NNW,10.4,-,N/A,,Overcast,340,2012-10-09 18:48:00
1:53 PM,64.0,43.0,46,29.90,10.0,North,10.4,-,N/A,,Overcast,350,2012-10-09 18:53:00
2:53 PM,63.0,42.1,46,29.91,10.0,North,11.5,-,N/A,,Overcast,360,2012-10-09 19:53:00
3:53 PM,61.0,39.9,46,29.94,10.0,North,12.7,-,N/A,,Overcast,360,2012-10-09 20:53:00
4:53 PM,60.1,41.0,49,29.97,10.0,North,10.4,-,N/A,,Overcast,360,2012-10-09 21:53:00
5:53 PM,59.0,42.1,53,29.99,10.0,North,10.4,20.7,N/A,,Overcast,360,2012-10-09 22:53:00
6:53 PM,55.9,36.0,47,30.02,10.0,NNW,9.2,-,N/A,,Partly Cloudy,340,2012-10-09 23:53:00
7:53 PM,52.0,35.1,53,30.06,10.0,NNW,5.8,-,N/A,,Clear,330,2012-10-10 00:53:00
8:53 PM,50.0,32.0,50,30.10,10.0,NNW,6.9,-,N/A,,Clear,340,2012-10-10 01:53:00
9:53 PM,46.0,27.0,47,30.13,10.0,North,6.9,-,N/A,,Clear,350,2012-10-10 02:53:00
10:53 PM,44.1,28.0,53,30.15,10.0,SSW,3.5,-,N/A,,Clear,200,2012-10-10 03:53:00
11:53 PM,37.9,28.0,68,30.16,10.0,Calm,Calm,-,N/A,,Clear,0,2012-10-10 04:53:00